Location: Unspecified
(0.0000°N, 0.0000°E)
Time: 18:29:44
(UTC+00:00)

Kosmos-2154 - Pass Details

Date: 14 June 2023
Orbit: 968 x 1007 km, 82.9° (Epoch: 28 September)

Event Time Altitude Azimuth Distance (km) Brightness Sun altitude
Exits shadow 18:57:43 16° 95° (E) 2,322 7.4 -13.2°
Maximum altitude 18:57:53 16° 93° (E) 2,321 7.4 -13.2°
Drops below altitude 10° 19:01:23 10° 58° (ENE) 2,702 8.0 -14.0°
Sets 19:04:58 0° 37° (NE) 3,644 8.9 -14.8°
